Flag for U.S.A. Weather past 2 weeks in Decatur, Illinois, U.S.A.

Now
87 °F

Sunny.


Feels Like: 85 °F
Forecast: 62 / 85 °F
Wind: 5 mph from North

Location: Decatur Airport

Current Time: Aug 1, 2015 at 1:47:16 PM

Latest Report: Aug 1, 2015 at 12:54 PM


Visibility: 10 mi

Pressure: 30.01 "Hg

Humidity: 32%

Dew point: 54 °F

Location of DecaturLocation

Historic Weather in Decatur — Graph

°F

Decatur temperature yesterday

Maximum temperature yesterday: 90 °F (at 3:54 PM)
Minimum temperature yesterday: 71 °F (at 5:54 AM)
Average temperature yesterday: 81 °F

Past Weeks' High & Low Weather Summary

 TemperatureHumidityPressure
High92 °F (Jul 28, 2:54 PM)97% (Jul 28, 6:03 AM)30.13 "Hg (Jul 28, 6:03 AM)
Low58 °F (Jul 22, 5:54 AM)35% (Jul 30, 3:54 PM)29.76 "Hg (Jul 20, 7:54 PM)
Average77 °F73%29.95 "Hg
* Reported Jul 17 11:54 AM — Aug 1 11:54 AM, Decatur, Weather by CustomWeather, © 2015

Note: Actual official high and low records may vary slightly from our data, if they occured in-between our weather recording intervals... More about our weather records

Advertising

Decatur weather history for previous 24 hours

 ConditionsComfort  
Time TempWeatherWind HumidityBarometerVisibility
11:54 AM
Sat, Aug 1
85 °FSunny.No wind35%30.03 "Hg10 mi
10:54 AM84 °FSunny.5 mph37%30.05 "Hg10 mi
9:54 AM81 °FSunny.5 mph42%30.03 "Hg10 mi
8:54 AM78 °FSunny.3 mph54%30.03 "Hg10 mi
7:54 AM73 °FSunny.7 mph62%30.03 "Hg10 mi
6:54 AM69 °FSunny.8 mph68%30.03 "Hg10 mi
5:54 AM66 °FClear.5 mph70%30.02 "Hg10 mi
4:54 AM68 °FClear.9 mph65%30.02 "Hg10 mi
3:54 AM69 °FClear.9 mph66%30.01 "Hg10 mi
2:54 AM69 °FClear.6 mph68%30.01 "Hg10 mi
1:54 AM73 °FClear.9 mph59%30.01 "Hg10 mi
12:54 AM76 °FClear.9 mph58%30.02 "Hg10 mi
11:54 PM
Fri, Jul 31
75 °FPassing clouds.5 mph69%30.02 "Hg10 mi
10:54 PM77 °FClear.5 mph58%30.01 "Hg10 mi
9:54 PM78 °FClear.3 mph52%30.00 "Hg10 mi
8:54 PM80 °FSunny.7 mph45%29.99 "Hg10 mi
7:54 PM83 °FSunny.9 mph40%29.98 "Hg10 mi
6:54 PM86 °FSunny.6 mph43%29.98 "Hg10 mi
5:54 PM88 °FSunny.9 mph36%29.98 "Hg10 mi
4:54 PM89 °FSunny.9 mph36%29.99 "Hg10 mi
3:54 PM90 °FPassing clouds.15 mph35%30.00 "Hg10 mi
2:54 PM89 °FPassing clouds.15 mph42%30.01 "Hg10 mi
1:54 PM89 °FSunny.15 mph46%30.03 "Hg10 mi
Weather by CustomWeather, © 2015

See weather overviewHow to use our weather pages